Willimantic, CT

8:24 AM EST on February 22, 2018 (GMT -0500)
Windham

Weather History for KIJD - April, 2014

Change the Weather History Date:

Saturday, April 5, 2014

  Actual Average Record
Temperature  
Mean Temperature 45 °F -  
Max Temperature 53 °F 53 °F 70 °F (1974)
Min Temperature 37 °F 34 °F 14 °F (1954)
Degree Days  
Heating Degree Days 20    
Moisture  
Dew Point 33 °F    
Average Humidity 74    
Maximum Humidity 100    
Minimum Humidity 37    
Precipitation  
Precipitation 0.20 in - - ()
Sea Level Pressure  
Sea Level Pressure 29.80 in    
Wind  
Wind Speed 7 mph (NNW)    
Max Wind Speed 18 mph    
Max Gust Speed 29 mph    
Visibility 8 miles    
Events Rain    
Averages and records for this station are not official NWS values.
T = Trace of Precipitation, MM = Missing Value Source: NWS Daily Summary

Daily Weather History Graph

Daily Weather History Graph

Search for Another Location

Airport or City:

Trip Planner

Search our weather history database for the weather conditions in past years. The results will help you decide how hot, cold, wet, or windy it might be!

Date:

Astronomy

Apr. 05, 2014 Rise Set
Actual Time 6:24 AM EDT 7:18 PM EDT
Civil Twilight 5:56 AM EDT 7:46 PM EDT
Nautical Twilight 5:23 AM EDT 8:20 PM EDT
Astronomical Twilight 4:48 AM EDT 8:55 PM EDT
Moon 10:27 AM EDT (4/5) 12:29 AM EDT (4/5)
Length of Visible Light 13h 50m
Length of Day
12h 53m
Waxing Crescent, 34% of the Moon is Illuminated
Apr 5
Waxing Crescent
Apr 7
First Quarter
Apr 15
Full
Apr 22
Last Quarter
Apr 29
New

Hourly Weather History & Observations

Time (EDT) Temp. Windchill Dew Point Humidity Pressure Visibility Wind Dir Wind Speed Gust Speed Precip Events Conditions
12:03 AM 37.0 °F 33.3 °F 35.1 °F 93% 29.82 in 3.0 mi ENE 4.6 mph - 0.01 in Rain Light Rain
12:52 AM 37.9 °F 33.5 °F 36.0 °F 93% 29.81 in 10.0 mi NNE 5.8 mph - 0.01 in   Overcast
1:50 AM 37.4 °F 32.8 °F 37.4 °F 100% 29.80 in 1.8 mi NNW 5.8 mph - 0.11 in Rain Heavy Rain
1:52 AM 39.0 °F 35.7 °F 37.0 °F 93% 29.80 in 1.8 mi North 4.6 mph - 0.12 in Rain Heavy Rain
2:00 AM 39.0 °F 34.8 °F 37.0 °F 93% 29.79 in 2.5 mi North 5.8 mph - 0.03 in Rain Rain
2:07 AM 39.0 °F 34.8 °F 37.0 °F 93% 29.79 in 3.0 mi North 5.8 mph - 0.05 in Rain Rain
2:22 AM 37.9 °F 32.7 °F 36.0 °F 93% 29.77 in 6.0 mi NNE 6.9 mph - 0.06 in Rain Light Rain
2:30 AM 37.9 °F 33.5 °F 37.0 °F 97% 29.77 in 9.0 mi North 5.8 mph - 0.06 in Rain Light Rain
2:41 AM 37.9 °F 32.7 °F 36.0 °F 93% 29.76 in 10.0 mi North 6.9 mph - 0.06 in Rain Light Rain
2:52 AM 37.9 °F 33.5 °F 36.0 °F 93% 29.76 in 10.0 mi North 5.8 mph - 0.07 in Rain Light Rain
3:34 AM 37.9 °F 32.1 °F 36.0 °F 93% 29.72 in 10.0 mi NE 8.1 mph - 0.00 in   Overcast
3:52 AM 37.9 °F 33.5 °F 36.0 °F 93% 29.72 in 10.0 mi North 5.8 mph - 0.00 in   Overcast
4:52 AM 37.9 °F 32.7 °F 36.0 °F 93% 29.73 in 4.0 mi North 6.9 mph - N/A   Overcast
5:52 AM 37.9 °F 34.4 °F 36.0 °F 93% 29.73 in 10.0 mi NNW 4.6 mph - N/A   Overcast
6:52 AM 39.0 °F - 37.0 °F 93% 29.74 in 10.0 mi Calm Calm - N/A   Overcast
7:52 AM 39.0 °F 35.7 °F 36.0 °F 89% 29.75 in 10.0 mi West 4.6 mph - N/A   Overcast
8:18 AM 39.9 °F 36.7 °F 37.0 °F 89% 29.75 in 10.0 mi Variable 4.6 mph - N/A   Overcast
8:52 AM 41.0 °F 38.0 °F 37.9 °F 89% 29.75 in 9.0 mi SW 4.6 mph - N/A   Overcast
9:52 AM 42.1 °F 35.7 °F 37.0 °F 82% 29.77 in 10.0 mi WNW 11.5 mph 17.3 mph N/A   Overcast
10:52 AM 44.1 °F 39.0 °F 37.0 °F 76% 29.78 in 10.0 mi NW 9.2 mph 17.3 mph N/A   Overcast
11:52 AM 46.0 °F 41.0 °F 37.0 °F 71% 29.77 in 10.0 mi WNW 10.4 mph - N/A   Overcast
12:52 PM 48.0 °F - 36.0 °F 63% 29.78 in 10.0 mi WNW 8.1 mph - N/A   Overcast
1:02 PM 48.0 °F - 35.1 °F 61% 29.76 in 10.0 mi NNW 10.4 mph 17.3 mph N/A   Overcast
1:52 PM 48.9 °F - 34.0 °F 56% 29.77 in 10.0 mi West 15.0 mph 24.2 mph N/A   Overcast
2:52 PM 51.1 °F - 30.9 °F 46% 29.77 in 10.0 mi NW 18.4 mph 27.6 mph N/A   Overcast
3:52 PM 53.1 °F - 27.0 °F 37% 29.78 in 10.0 mi WNW 17.3 mph 24.2 mph N/A   Mostly Cloudy
4:52 PM 51.1 °F - 27.0 °F 39% 29.79 in 10.0 mi WNW 11.5 mph 21.9 mph N/A   Scattered Clouds
5:52 PM 50.0 °F - 26.1 °F 39% 29.82 in 10.0 mi NW 15.0 mph 23.0 mph N/A   Mostly Cloudy
6:52 PM 46.9 °F - 24.1 °F 41% 29.86 in 10.0 mi NW 10.4 mph 24.2 mph N/A   Clear
7:52 PM 43.0 °F 35.4 °F 21.0 °F 42% 29.92 in 10.0 mi NW 16.1 mph 28.8 mph N/A   Clear
8:52 PM 42.1 °F 35.7 °F 21.9 °F 45% 29.95 in 10.0 mi NW 11.5 mph - N/A   Clear
9:52 PM 39.9 °F 33.4 °F 21.0 °F 47% 29.96 in 10.0 mi WNW 10.4 mph 17.3 mph N/A   Clear
10:52 PM 39.0 °F 34.8 °F 21.0 °F 49% 29.98 in 10.0 mi WNW 5.8 mph - N/A   Clear
11:52 PM 37.9 °F 31.5 °F 21.9 °F 53% 29.99 in 10.0 mi West 9.2 mph 21.9 mph N/A   Clear